Tracking 31028 objects as of 17-Jul-2025
HD Live streaming from Space Station
objects crossing your sky now

DELTA 1 DEB

Track DELTA 1 DEB now!
10-day predictions


NORAD ID: 9976
Int'l Code: 1973-086GF
Perigee: 1,497.9 km
Apogee: 1,568.7 km
Inclination: 102.4 °
Period: 116.6 minutes
Semi major axis: 7904 km
RCS: 0.0352 m2 (small)
Launch date: November 6, 1973
Source: United States (US)
Launch site: AIR FORCE WESTERN TEST RANGE (AFWTR)

Note: This is SATELLITE DEBRIS
Your satellite tracking list
Your tracking list is empty




NASA's NSSDC Master Catalog

Two Line Element Set (TLE):
1  9976U 73086GF  25197.60307959  .00000038  00000-0  66409-3 0  9997
2  9976 102.3815 212.4605 0044760 120.3856   4.0701 12.35398142255001
Source of the keplerian elements: AFSPC